Location: ??????????
(54.7560°N, 39.1389°E)
Time: 15:09:49
(UTC+00:00)

Cosmos 1331 Rocket - Pass Details

Date: 19 May 2025
Orbit: 746 x 773 km, 74.0° (Epoch: 20 June)

Event Time Altitude Azimuth Distance (km) Brightness Sun altitude
Rises 22:47:32 0° 330° (NNW) 3,232 7.8 -13.0°
Reaches altitude 10° 22:49:58 10° 326° (NW) 2,298 6.9 -12.8°
Maximum altitude 22:55:00 51° 251° (WSW) 944 4.2 -12.6°
Enters shadow 22:59:09 15° 179° (S) 1,970 5.6 -12.3°
